Regional Weather Roundup
Issued by NWS

Home | Current Version | Previous Version | Graphics & Text | Print | Product List | Glossary On
Versions: 1 2 3 4 5 6 7 8 9 10 11 12 13 14 15 16 17 18 19 20 21 22 23 24 25 26 27 28 29 30 31 32 33 34 35 36 37 38 39 40 41 42 43 44 45 46 47 48 49 50
000
ASUS43 KOAX 171602
RWRNE

WEATHER ROUNDUP FOR NEBRASKA
NATIONAL WEATHER SERVICE OMAHA NE
1000 AM CST WED JAN 17 2018

NOTES: SATELLITE DATA IS BEING USED TO AUGMENT CLOUD COVER ABOVE
       12000 FEET.
       "FAIR" INDICATES FEW OR NO CLOUDS BELOW 12,000 FEET WITH NO
       SIGNIFICANT WEATHER AND/OR OBSTRUCTIONS TO VISIBILITY.


NEZ001>004-019>022-054>056-171700-
NEBRASKA PANHANDLE

CITY           SKY/WX    TMP DP  RH WIND       PRES   REMARKS
SCOTTSBLUFF    SUNNY     13   6  74 NW10      30.28R WCI   0
ALLIANCE       SUNNY      8   3  80 W5        30.25R WCI   0
CHADRON        SUNNY     20   9  62 SW9       30.29R WCI   9
GORDON         FAIR      22   8  56 W5        30.24R WCI  15
KIMBALL        SUNNY     31  14  50 W14       30.26R WCI  20
SIDNEY         SUNNY     27  10  49 W7        30.26R WCI  19
$$

NEZ057>060-069>072-079>082-171700-
SOUTHWEST NEBRASKA

CITY           SKY/WX    TMP DP  RH WIND       PRES   REMARKS
NORTH PLATTE   SUNNY     13   3  64 W7        30.34R WCI   3
IMPERIAL       SUNNY     12   4  70 W5        30.31R WCI   4
LEXINGTON      SUNNY     16   3  57 SW5       30.38R WCI   9
MCCOOK         SUNNY     13   5  70 SW5       30.37R WCI   5
OGALLALA       SUNNY     15   8  72 W9        30.31R WCI   3
$$

NEZ005>010-023>029-035>040-094-171700-
NORTH CENTRAL NEBRASKA

CITY           SKY/WX    TMP DP  RH WIND       PRES   REMARKS
VALENTINE      SUNNY     21   9  59 SW8       30.26R WCI  11
AINSWORTH      SUNNY     21   8  57 SW10      30.26F WCI  10
BROKEN BOW     SUNNY     15   3  59 SW5       30.33R WCI   8
O`NEILL        SUNNY     18   7  61 SW13      30.31R WCI   5
ORD            SUNNY     15   5  64 S8        30.36R WCI   4
THEDFORD       SUNNY     18   5  57 W5        30.29R WCI  11
$$

NEZ041-046>049-061>064-073>077-083>087-171700-
SOUTH CENTRAL NEBRASKA

CITY           SKY/WX    TMP DP  RH WIND       PRES   REMARKS
GRAND ISLAND   CLOUDY    16   3  56 SW15      30.42R WCI   1
AURORA         CLOUDY    14   4  65 SW13      30.44R WCI   0
HASTINGS       CLOUDY    13   1  59 SW10      30.44R WCI   0
HEBRON         CLOUDY    13   4  68 SW8       30.52S WCI   2
HOLDREGE       CLOUDY    15   3  61 SW9       30.40R WCI   3
KEARNEY        CLOUDY    12   1  61 SW15      30.41S WCI  -4
YORK           SUNNY     14   5  67 SW14      30.47R WCI  -1
$$

NEZ011>018-030>034-042>045-171700-
NORTHEAST NEBRASKA

CITY           SKY/WX    TMP DP  RH WIND       PRES   REMARKS
NORFOLK        CLOUDY    14   4  64 SW14      30.38R WCI  -1
ALBION         CLOUDY    16   6  63 SW7       30.39S WCI   7
BLAIR          CLOUDY    17   6  62 SW16G22   30.46F WCI   1
COLUMBUS       CLOUDY    18   5  57 SW14G22   30.45S WCI   4
FREMONT        CLOUDY    14   5  68 SW8       30.48S WCI   3
TEKAMAH        CLOUDY    14   5  67 S14       30.48S WCI  -1
WAYNE          CLOUDY    15   4  60 SW13      30.39R WCI   1
$$

NEZ050>053-065>068-078-088>093-171700-
SOUTHEAST NEBRASKA

CITY           SKY/WX    TMP DP  RH WIND       PRES   REMARKS
LINCOLN        CLOUDY    14   4  64 SW10      30.53S WCI   1
OMAHA EPPLEY   CLOUDY    10   4  76 S12       30.52F WCI  -5
BEATRICE       CLOUDY    11   4  71 SW8       30.54S WCI   0
FALLS CITY     CLOUDY    13   5  70 SW9       30.60S WCI   1
NEBRASKA CITY  CLOUDY    12   6  76 SW13      30.55S WCI  -3
PLATTSMOUTH    CLOUDY     9   3  79 S12       30.52F WCI  -6
$$

NEZ044-045-051>053-067-171700-
OMAHA AREA

CITY           SKY/WX    TMP DP  RH WIND       PRES   REMARKS
OMAHA EPPLEY   CLOUDY    10   4  76 S12       30.52F WCI  -5
BLAIR          CLOUDY    17   6  62 SW16G22   30.46F WCI   1
FREMONT        CLOUDY    14   5  68 SW8       30.48S WCI   3
MILLARD        CLOUDY    16   6  66 S6        30.52F WCI   7
OFFUTT AFB     SUNNY      9   6  86 SE7       30.53F WCI  -2
PLATTSMOUTH    CLOUDY     9   3  79 S12       30.52F WCI  -6
WAHOO          FAIR      15   4  63 SW10      30.49S WCI   2
$$



USA.gov is the U.S. government's official web portal to all federal, state and local government web resources and services.